HAZ2104 ZWSH-ZSHC

Flight info

Callsign HAZ2104
Flight time N/A
Altitude 39100
Route MAGIV6Z MAGIV W187 TUSLI W112 VIKUP W191 DNC W565 BIGUX W214 HO H14 P396 H131 ATGEN W283 SUDGO H132 P234 H36 SNF W269 OLPOV B213 WHA R343 SAGUD W50 XSH H17 JDZ H26 TXN G204 OREXA OREXA91
Aircraft A359/H-SDE2E3GHIJ3J4J5LM1ORWXY/LB1D1

Departure

Time N/A
Airport Kashgar Laining International Airport (ZWSH)

Arrival

Time 2026-05-05 15:02
Airport Hangzhou Xiaoshan International Airport (ZSHC)
Time Latitude Longitude Altitude Speed Heading
2026-05-05 14:50 29.92850 119.74948 10290 ft 288 kts 59°
2026-05-05 14:51 29.93847 119.76940 9975 ft 286 kts 59°
2026-05-05 14:51 29.94851 119.78949 9622 ft 293 kts 60°
2026-05-05 14:51 29.95874 119.81005 9298 ft 296 kts 60°
2026-05-05 14:51 29.96893 119.83062 8952 ft 295 kts 60°
2026-05-05 14:52 29.97907 119.85109 8635 ft 293 kts 60°
2026-05-05 14:52 29.98916 119.87151 8301 ft 292 kts 60°
2026-05-05 14:52 29.99918 119.89183 7968 ft 290 kts 60°
2026-05-05 14:52 30.00913 119.91200 7637 ft 289 kts 60°
2026-05-05 14:53 30.01904 119.93211 7333 ft 288 kts 60°
2026-05-05 14:53 30.02890 119.95217 7005 ft 286 kts 65°
2026-05-05 14:53 30.03772 119.97250 6683 ft 285 kts 68°
2026-05-05 14:53 30.04655 119.99307 6358 ft 284 kts 67°
2026-05-05 14:54 30.05567 120.01330 6017 ft 283 kts 66°
2026-05-05 14:54 30.06182 120.02649 5822 ft 282 kts 65°
2026-05-05 14:54 30.07126 120.04633 5502 ft 280 kts 65°
2026-05-05 14:54 30.08363 120.07169 5306 ft 262 kts 65°
2026-05-05 14:55 30.09242 120.08955 5169 ft 251 kts 66°
2026-05-05 14:55 30.09786 120.10109 5073 ft 243 kts 66°
2026-05-05 14:55 30.10826 120.12345 4884 ft 229 kts 63°
2026-05-05 14:55 30.11422 120.13350 4855 ft 220 kts 59°
2026-05-05 14:56 30.12229 120.14772 4760 ft 211 kts 65°
2026-05-05 14:56 30.12905 120.16232 4601 ft 201 kts 69°
2026-05-05 14:56 30.13537 120.17642 4501 ft 197 kts 68°
2026-05-05 14:56 30.14171 120.19043 4190 ft 197 kts 68°
2026-05-05 14:57 30.14796 120.20455 3875 ft 197 kts 69°
2026-05-05 14:57 30.15418 120.21869 3573 ft 197 kts 69°
2026-05-05 14:57 30.15717 120.22545 3457 ft 197 kts 69°
2026-05-05 14:58 30.16197 120.23587 3252 ft 197 kts 63°
2026-05-05 14:58 30.16840 120.24983 2995 ft 196 kts 64°
2026-05-05 14:58 30.17458 120.26391 2737 ft 196 kts 65°
2026-05-05 14:58 30.18072 120.27784 2478 ft 191 kts 65°
2026-05-05 14:59 30.18660 120.29111 2229 ft 180 kts 66°
2026-05-05 14:59 30.19221 120.30383 2005 ft 177 kts 67°
2026-05-05 14:59 30.19779 120.31647 1771 ft 175 kts 68°
2026-05-05 14:59 30.20318 120.32867 1538 ft 165 kts 69°
2026-05-05 15:00 30.20821 120.34015 1319 ft 156 kts 69°
2026-05-05 15:00 30.21139 120.34735 1184 ft 149 kts 70°
2026-05-05 15:00 30.21755 120.36137 935 ft 145 kts 70°
2026-05-05 15:00 30.22208 120.37171 764 ft 143 kts 67°
2026-05-05 15:01 30.22655 120.38179 581 ft 139 kts 66°
2026-05-05 15:01 30.23095 120.39175 401 ft 138 kts 65°
2026-05-05 15:01 30.23532 120.40166 224 ft 139 kts 64°
2026-05-05 15:01 30.23968 120.41156 56 ft 138 kts 64°
2026-05-05 15:02 30.24376 120.42096 38 ft 114 kts 64°
2026-05-05 15:02 30.24613 120.42624 36 ft 43 kts 63°
2026-05-05 15:02 30.24717 120.42921 38 ft 34 kts 82°
2026-05-05 15:02 30.24719 120.43104 39 ft 18 kts 103°
2026-05-05 15:03 30.24661 120.43131 38 ft 7 kts 208°
2026-05-05 15:03 30.24629 120.43089 38 ft 7 kts 241°
2026-05-05 15:03 30.24599 120.43021 38 ft 11 kts 244°
2026-05-05 15:03 30.24563 120.42922 38 ft 14 kts 249°
2026-05-05 15:04 30.24516 120.42835 38 ft 14 kts 242°
2026-05-05 15:04 30.24468 120.42728 38 ft 16 kts 243°
2026-05-05 15:04 30.24413 120.42602 38 ft 18 kts 242°
2026-05-05 15:04 30.24350 120.42461 38 ft 21 kts 245°
2026-05-05 15:05 30.24215 120.42155 38 ft 23 kts 243°
2026-05-05 15:05 30.24141 120.41989 38 ft 23 kts 242°
2026-05-05 15:05 30.24066 120.41816 38 ft 24 kts 242°
2026-05-05 15:06 30.23987 120.41639 38 ft 25 kts 243°
2026-05-05 15:06 30.23906 120.41456 38 ft 26 kts 244°
2026-05-05 15:06 30.23824 120.41272 38 ft 26 kts 243°
2026-05-05 15:06 30.23731 120.41137 38 ft 17 kts 187°
2026-05-05 15:07 30.23665 120.41176 38 ft 9 kts 151°
2026-05-05 15:07 30.23602 120.41214 36 ft 4 kts 152°
2026-05-05 15:07 30.23597 120.41217 38 ft 0 kts 152°